Погода в Дедилове

Россия / Тульская область     53˚58′30″N   37˚55′39″E
темп.,
°C
ветер,
м/с
пор.,
м/с
влажн.,
%
обл.,
%
осадки,
мм/ч
давл.,
гПа
погр.,
м
17 января, вс
вс1700:00−16˚сз5996100 0.8 1009551
03:00−17˚сз4896100 1.1 1010403
06:00−18˚сз3696100 0.3 1011395
09:00−20˚ссз3597100 0.3 1013161
12:00−20˚ссз3495100 0.0 1015272
15:00−21˚с2396100 0.1 1016208
18:00−23˚с2296100 0.0 101840
21:00−24˚с3396100 0.0 101959
18 января, пн
пн1800:00−25˚всв129792 0.0 101920
03:00−27˚ссв229880 0.0 102019
06:00−27˚ссв229889 0.0 102021
09:00−25˚ссв229794 0.0 102137
12:00−22˚всв1194100 0.0 1020122
15:00−21˚ссз1195100 0.0 101979
18:00−21˚в1195100 0.0 101921
21:00−20˚ссз1195100 0.0 101948
19 января, вт
вт1900:00−20˚с1194100 0.0 101960
03:00−19˚с1194100 0.0 101841
06:00−19˚ссз1294100 0.0 101862
09:00−19˚ссз1294100 0.0 101827
12:00−17˚ссз1290100 0.0 1017212
15:00−16˚сз2393100 0.0 1017236
18:00−18˚сз2396100 0.0 101739
21:00−17˚ссз2297100 0.1 101843
20 января, ср
ср2000:00−18˚сз2397100 0.0 101924
03:00−20˚сз239998 0.1 102021
06:00−19˚зсз339891 0.1 102140
09:00−19˚зсз339988 0.1 102232
12:00−16˚зсз349685 0.0 1023138
15:00−15˚з239678 0.0 102366
18:00−18˚з33970 0.0 102521
21:00−19˚зюз33980 0.0 102622
21 января, чт
чт2100:00−19˚зюз349812 0.0 102638
03:00−19˚юз34986 0.0 102660
06:00−19˚юз479745 0.0 102588
09:00−18˚ююз479441 0.0 1025135
12:00−12˚ююз6118882 0.0 1023286
15:00−9˚ююз7149284 0.0 1020464
18:00−7˚юз71493100 0.2 1019541
21:00−6˚юз71493100 0.5 1017528